Weather Service Report


320 
ASCA42 TJSJ 220810
RWRPR 
PUERTO RICO/U.S. VIRGIN ISLANDS HOURLY WEATHER ROUNDUP
NATIONAL WEATHER SERVICE SAN JUAN PR
400 AM AST WED NOV 22 2017

PRZ001>002-007>008-010-220900-
PUERTO RICO
  
CITY           SKY/WX    TMP DP  RH WIND       PRES   REMARKS
SAN JUAN LMM   PTCLDY    75  73  94 CALM      29.90S                  
AGUADILLA      CLEAR     70  64  83 SE6       29.92R                  
$$

VIZ001>002-220900-
U.S. VIRGIN ISLANDS
  
CITY           SKY/WX    TMP DP  RH WIND       PRES   REMARKS
CHARLOTTE AMA    N/A     75  73  94 MISG      29.91                   
$$

HOURLY WEATHER ROUNDUP FOR THE NEWS MEDIA
  
CITY           SKY/WX    TMP DP  RH WIND       PRES   REMARKS
ORLANDO        MOCLDY    66  65  96 N6        29.95R                  
NEW YORK       CLOUDY    51  47  86 CALM      29.99F                  
NEWARK         CLOUDY    47  40  76 CALM      29.97F                  
CHICAGO        CLEAR     26  14  60 NW10      30.25R WCI  16          
HARTFORD       LGT RAIN  55  50  83 S5        30.02S                  
BOSTON         CLOUDY    46  42  86 S9        30.01F                  
DALLAS         CLEAR     52  26  36 N14G22    30.26R                  
PHILADELPHIA   CLOUDY    53  46  77 S6        29.96F                  
LOS ANGELES    CLEAR     68  48  48 E3        30.04R                  
WASHINGTON DC  CLOUDY    53  46  77 S9        29.92F                  

Return to Home page


Western Regional Climate Center, wrcc@dri.edu